Location: Bijele Vode
(45.2833°N, 16.2000°E)
Time: 09:03:03
(UTC+00:00)

Nauka - Pass Details

Date: 02 October 2021
Orbit: 418 x 423 km, 51.6° (Epoch: 18 October)

Event Time Altitude Azimuth Distance (km) Brightness Sun altitude
Rises 19:06:27 0° 292° (WNW) 2,366 ? -27.1°
Reaches altitude 10° 19:08:48 10° 278° (W) 1,500 ? -27.5°
Enters shadow 19:10:02 17° 261° (W) 1,129 ? -27.7°
